Temp
67 67 67 67 72 71 70 71 72 73 75 76 72 65 65 65 64 64 65 67 65 67 70 69 68 70 72 71 72 72 71 71 66 71 71 69 64 63 61 61 61 57 55
73 69 68 70 69 70 70 71 74 73 74 74 73 68 66 66 66 64 64 68 66 67 68 69 68 71 68 70 71 69 70 71 69 66 68 66 63 63 63 58 61 64 61
77 74 69 70 70 68 70 71 73 73 76 74 73 71 66 65 66 65 66 68 67 67 68 68 68 69 68 68 69 69 69 71 70 68 68 68 64 64 61 62 59 61 64
76 76 74 71 71 70 71 73 73 75 75 76 74 71 69 66 66 66 67 67 69 69 70 69 69 70 68 68 69 68 69 68 68 68 67 67 64 64 62 59 58 60 60
77 75 74 75 72 71 71 72 74 73 75 76 71 70 69 67 68 66 67 67 68 70 70 70 69 66 59 64 70 68 68 67 67 67 65 66 64 61 59 61 60 61 60
77 75 75 75 72 70 68 70 72 72 73 71 73 72 67 67 56 52 62 68 70 70 68 69 69 57 57 50 51 51 63 66 66 66 66 64 65 64 63 61 59 57 54
72 76 75 74 73 70 67 67 70 69 72 72 73 73 70 66 51 50 49 68 69 69 69 68 68 70 59 68 49 48 46 47 53 67 66 66 66 67 65 62 60 59 58
65 74 75 73 70 69 67 64 64 66 68 71 71 71 70 67 49 47 47 65 68 70 70 68 66 68 67 66 68 63 63 65 62 64 67 69 69 69 67 66 63 62 62
51 53 56 69 70 68 64 63 63 64 64 68 70 70 68 66 48 46 48 62 66 70 71 70 70 71 57 50 65 64 63 64 55 50 49 49 49 48 56 66 57 56 53
46 49 53 55 61 67 63 62 63 64 63 65 65 66 59 63 50 45 49 62 62 69 71 70 50 66 46 46 62 65 62 62 64 63 58 50 46 54 45 61 62 53 53
48 50 53 54 55 59 61 61 61 60 60 61 62 63 64 60 61 43 44 61 62 68 70 68 69 47 44 45 51 66 63 66 55 64 60 60 60 60 59 58 62 60 53
46 47 49 52 54 56 58 60 59 59 58 58 58 57 58 60 50 43 43 48 54 66 67 68 68 46 43 43 46 51 45 45 64 59 58 55 55 55 57 58 59 60 61
42 42 45 48 52 57 57 57 56 57 55 55 55 56 56 57 59 42 41 43 45 57 68 62 53 43 43 40 41 42 37 59 60 57 54 55 56 59 61 59 59 60 60
40 40 43 43 44 44 44 43 52 52 54 53 53 53 54 55 56 49 45 46 43 45 42 52 48 46 44 50 47 43 54 58 59 58 56 57 59 58 57 59 55 56 54
39 39 39 41 41 43 42 40 40 37 37 43 44 51 52 52 54 49 48 49 51 52 53 53 54 55 53 55 56 55 53 55 56 57 57 56 57 58 57 57 56 55 52
36 36 36 37 39 39 39 40 37 37 36 36 36 36 45 43 40 40 41 43 42 39 51 54 52 51 52 53 53 54 53 48 54 55 56 57 55 50 52 52 53 48 47
36 35 36 36 36 35 36 36 35 39 37 36 35 36 36 36 36 39 39 37 37 39 51 53 50 48 49 51 51 53 51 51 53 51 52 50 49 50 42 44 45 41 38
43 38 36 35 35 35 35 35 35 34 33 34 36 35 35 35 36 37 37 40 40 43 46 47 44 46 49 50 48 49 49 46 47 46 44 44 40 39 38 39 40 41 41
43 43 45 42 38 35 35 34 34 34 33 33 34 35 34 35 35 35 37 39 38 38 39 40 41 42 41 41 41 40 39 39 39 37 39 39 39 40 40 40 41 38 39
43 36 39 44 43 40 39 37 35 34 33 33 32 32 33 34 33 33 33 33 34 35 37 39 40 40 40 40 39 37 37 37 38 37 37 38 37 39 39 38 39 39 39
45 44 37 43 41 40 39 37 37 37 35 34 33 33 32 32 32 32 32 32 32 32 32 33 34 34 35 37 39 37 36 37 37 37 37 36 34 36 36 36 36 36 36
45 44 43 40 40 38 38 39 38 37 36 35 35 36 34 34 33 32 32 32 32 33 33 33 33 33 33 32 33 33 34 33 34 34 34 34 33 33 33 33 33 33 33
44 42 41 38 37 36 37 37 36 36 35 35 35 35 34 33 33 33 33 33 33 33 34 33 33 32 33 33 34 33 32 32 33 33 33 33 33 33 33 33 33 33 33
41 41 37 35 34 34 34 34 34 34 35 35 35 34 34 34 33 32 33 33 34 34 34 34 34 33 33 33 33 34 34 33 34 34 34 33 33 33 33 33 33 33 33
37 37 35 32 32 33 33 33 33 34 34 33 34 34 34 34 33 32 32 33 33 33 34 34 34 34 33 32 33 33 32 32 35 35 38 38 36 36 35 35 35 36 36
36 35 32 32 31 31 32 31 32 33 33 33 33 33 33 33 32 32 32 32 32 33 34 34 34 34 33 32 32 32 32 33 34 34 39 39 38 37 38 37 38 37 38
MSLP
1012.06 1012.78 1013.34 1013.67 1013.87 1014.46 1014.97 1015.37 1015.55 1015.68 1016.05 1016.24 1017.11 1018.24 1019.06 1019.64 1020.13 1020.74 1021.29 1021.69 1022.33 1022.58 1022.66 1022.97 1023.37 1023.75 1023.74 1023.97 1024.21 1024.42 1024.38 1024.38 1024.32 1024.08 1024.80 1025.74 1027.04 1027.62 1028.28 1029.10 1029.37 1029.98 1030.49
1010.63 1011.57 1012.22 1012.86 1013.17 1013.36 1014.06 1014.43 1014.64 1014.79 1015.34 1015.71 1016.38 1017.41 1018.25 1018.81 1019.34 1019.65 1020.24 1020.54 1020.98 1021.38 1021.62 1021.97 1022.32 1022.96 1023.22 1023.35 1023.60 1023.88 1023.94 1023.94 1023.97 1024.05 1024.55 1025.45 1026.52 1027.22 1027.54 1028.56 1028.66 1028.48 1028.80
1009.39 1009.97 1010.99 1011.42 1011.89 1012.42 1012.81 1013.39 1013.86 1014.08 1014.40 1014.95 1015.53 1016.31 1017.19 1017.90 1018.44 1018.78 1019.10 1019.47 1019.75 1020.19 1020.60 1020.80 1021.23 1021.83 1022.27 1022.73 1022.92 1023.16 1023.52 1023.55 1023.51 1023.82 1023.78 1024.55 1025.56 1026.29 1026.94 1027.33 1027.89 1027.92 1027.87
1008.84 1009.02 1009.27 1009.97 1010.64 1011.37 1011.94 1012.18 1012.62 1013.09 1013.50 1013.83 1014.50 1015.28 1016.03 1016.90 1017.50 1017.90 1018.20 1018.47 1018.75 1019.10 1019.43 1019.74 1020.14 1020.55 1021.12 1021.74 1022.23 1022.67 1022.92 1023.07 1023.08 1023.20 1023.55 1023.69 1024.53 1025.41 1026.08 1026.39 1026.75 1026.86 1026.90
1007.82 1008.04 1008.31 1008.84 1009.84 1010.48 1010.81 1011.07 1011.44 1012.03 1012.35 1012.93 1013.79 1014.53 1015.09 1015.85 1016.44 1016.72 1017.22 1017.57 1017.73 1017.93 1018.34 1018.83 1019.03 1019.51 1020.03 1020.64 1021.27 1021.85 1022.32 1022.54 1022.50 1022.62 1022.88 1023.11 1023.34 1024.28 1024.84 1025.42 1025.45 1025.58 1025.85
1006.86 1007.05 1007.78 1008.09 1008.74 1009.43 1009.96 1010.17 1010.58 1011.12 1011.53 1012.19 1012.53 1013.25 1014.11 1014.71 1015.10 1015.67 1015.92 1016.35 1016.61 1016.75 1017.20 1017.77 1017.96 1018.69 1019.24 1019.81 1020.46 1020.85 1021.50 1021.83 1021.98 1021.92 1021.85 1021.96 1022.23 1022.83 1023.61 1024.18 1024.64 1024.62 1024.58
1006.70 1006.42 1007.03 1007.67 1007.90 1008.55 1009.24 1009.72 1009.77 1010.16 1010.62 1011.09 1011.57 1012.05 1012.89 1013.61 1014.12 1014.60 1014.99 1015.19 1015.57 1015.65 1016.01 1016.52 1017.04 1017.46 1018.32 1018.94 1019.65 1020.51 1021.12 1021.08 1021.44 1021.73 1021.10 1020.92 1021.28 1021.52 1022.24 1022.77 1023.45 1023.67 1023.56
1007.55 1006.30 1006.70 1007.17 1007.64 1008.19 1008.63 1009.15 1009.25 1009.53 1009.93 1010.32 1010.89 1011.27 1011.93 1012.54 1013.22 1013.74 1014.12 1014.52 1014.64 1014.59 1014.71 1015.29 1015.76 1016.20 1016.86 1017.72 1018.55 1019.35 1020.03 1020.30 1020.44 1020.59 1020.23 1020.26 1020.36 1020.64 1021.08 1021.48 1022.00 1022.67 1022.82
1009.30 1008.49 1007.82 1006.78 1007.14 1007.81 1008.26 1008.55 1009.09 1009.41 1009.82 1009.91 1010.35 1010.60 1011.00 1011.63 1012.07 1012.45 1013.21 1013.61 1013.52 1013.29 1013.54 1014.05 1014.56 1014.88 1015.47 1016.66 1017.66 1017.89 1018.45 1018.67 1018.97 1019.53 1020.03 1020.31 1020.63 1020.68 1020.75 1021.10 1021.42 1021.98 1022.04
1010.66 1009.60 1008.84 1008.28 1007.62 1007.35 1007.87 1008.26 1008.79 1009.09 1009.42 1009.87 1010.11 1010.19 1010.45 1010.70 1011.12 1011.78 1011.95 1012.35 1012.39 1012.11 1012.10 1012.63 1013.32 1013.73 1014.60 1015.68 1016.63 1016.78 1017.04 1017.17 1017.99 1018.56 1019.66 1020.23 1020.59 1020.34 1020.72 1020.47 1020.79 1021.18 1021.43
1011.23 1010.21 1009.34 1008.85 1008.41 1007.81 1007.62 1007.80 1008.28 1008.71 1009.03 1009.21 1009.32 1009.53 1009.70 1010.13 1010.22 1010.59 1010.79 1010.86 1010.93 1011.06 1010.57 1011.20 1011.97 1012.84 1013.67 1014.57 1015.35 1015.81 1015.62 1016.47 1016.89 1017.47 1018.31 1018.77 1019.07 1019.41 1019.65 1020.08 1020.07 1020.30 1020.69
1011.72 1011.04 1010.17 1009.35 1008.42 1008.15 1007.76 1007.68 1007.91 1008.33 1008.65 1008.89 1009.00 1008.87 1008.71 1008.57 1009.20 1010.05 1009.99 1010.15 1009.92 1009.77 1009.32 1010.01 1010.87 1011.69 1012.86 1013.85 1014.41 1014.90 1015.36 1015.86 1016.22 1016.64 1017.07 1017.51 1017.82 1018.14 1018.56 1018.96 1019.40 1019.56 1019.49
1012.56 1012.03 1011.11 1010.24 1009.13 1008.14 1008.01 1007.85 1007.81 1008.16 1008.41 1008.47 1008.47 1008.33 1008.17 1007.97 1007.78 1008.18 1009.15 1009.79 1009.00 1009.22 1008.46 1009.17 1010.03 1011.02 1012.18 1013.33 1013.95 1014.51 1014.98 1015.43 1015.52 1015.94 1016.28 1016.56 1016.79 1017.12 1017.61 1018.18 1018.46 1018.85 1019.05
1013.83 1013.08 1012.14 1011.31 1010.75 1010.34 1009.84 1009.40 1008.76 1008.67 1008.29 1008.17 1008.11 1007.82 1007.66 1007.58 1007.42 1007.85 1008.48 1009.05 1008.94 1009.16 1008.83 1009.17 1010.15 1011.04 1011.81 1012.56 1013.64 1014.62 1014.72 1014.73 1014.59 1014.97 1015.37 1016.08 1016.34 1016.63 1016.88 1017.28 1017.70 1018.04 1018.32
1015.02 1014.04 1013.42 1013.01 1012.56 1011.98 1011.79 1011.66 1011.70 1011.90 1011.13 1009.81 1009.28 1008.29 1007.79 1007.37 1006.94 1007.01 1007.33 1007.71 1007.73 1008.10 1008.56 1009.30 1010.52 1011.27 1011.88 1012.24 1012.63 1013.11 1013.80 1014.28 1014.03 1014.07 1014.53 1015.18 1015.41 1015.75 1016.04 1016.58 1017.00 1017.40 1017.62
1016.00 1015.62 1015.33 1014.74 1014.21 1013.60 1013.18 1012.58 1012.42 1012.65 1011.48 1011.11 1010.36 1009.82 1008.39 1007.64 1007.41 1007.31 1007.10 1007.03 1006.94 1007.57 1008.29 1008.91 1010.32 1011.02 1011.35 1011.80 1012.19 1012.38 1012.81 1013.43 1013.47 1013.83 1013.99 1014.40 1014.88 1015.22 1015.67 1016.08 1016.37 1016.99 1017.27
1017.30 1016.91 1016.35 1015.98 1015.47 1014.78 1014.36 1013.92 1013.60 1012.63 1012.19 1012.08 1011.57 1010.83 1010.15 1009.42 1008.56 1007.81 1007.63 1007.35 1008.03 1008.27 1007.94 1009.04 1010.18 1010.72 1011.15 1011.49 1011.59 1011.92 1012.39 1012.73 1013.11 1013.65 1013.90 1014.58 1014.92 1015.21 1015.65 1016.20 1016.57 1016.94 1017.10
1018.45 1017.97 1017.72 1017.59 1017.24 1016.93 1016.53 1015.73 1015.00 1014.44 1013.87 1013.31 1012.90 1012.52 1011.73 1011.14 1010.17 1009.61 1009.36 1009.22 1009.26 1009.51 1009.80 1009.96 1010.79 1011.16 1011.43 1012.00 1012.10 1012.43 1012.94 1013.43 1013.48 1014.05 1014.60 1014.99 1015.57 1015.66 1015.58 1016.10 1016.59 1016.91 1016.99
1019.84 1019.25 1018.45 1018.43 1018.57 1017.98 1017.36 1016.88 1016.47 1015.96 1015.55 1015.12 1014.31 1013.46 1013.46 1013.11 1012.53 1012.11 1011.66 1011.60 1011.43 1011.37 1011.54 1011.68 1011.94 1011.83 1011.87 1013.03 1011.89 1013.22 1013.69 1013.89 1013.85 1014.26 1014.43 1014.75 1014.95 1015.39 1015.20 1015.25 1016.08 1016.41 1016.64
1020.78 1020.99 1020.36 1019.48 1019.41 1019.10 1018.66 1018.07 1017.67 1017.37 1017.13 1016.77 1016.36 1016.10 1015.19 1013.91 1013.53 1013.59 1013.39 1013.18 1013.13 1013.09 1013.12 1013.03 1013.05 1012.59 1012.34 1012.20 1013.08 1013.40 1013.36 1013.43 1013.85 1013.57 1013.93 1014.68 1014.76 1015.15 1015.22 1015.26 1015.62 1015.92 1016.08
1021.47 1021.09 1021.12 1020.55 1020.33 1020.01 1019.63 1019.29 1018.93 1018.53 1018.19 1018.10 1018.00 1017.73 1017.07 1016.40 1016.11 1015.82 1015.58 1015.12 1014.97 1014.76 1014.40 1014.12 1013.99 1013.77 1013.95 1014.04 1013.93 1014.03 1013.93 1013.84 1013.90 1014.21 1014.19 1014.46 1014.88 1015.06 1014.91 1015.28 1015.58 1015.92 1016.12
1022.43 1022.10 1021.83 1021.77 1021.49 1021.15 1020.87 1020.38 1020.08 1019.87 1019.47 1019.13 1018.89 1018.58 1018.25 1017.79 1017.47 1017.25 1017.10 1016.97 1016.75 1016.32 1015.96 1015.62 1015.56 1015.46 1015.38 1015.25 1015.11 1014.84 1014.65 1014.61 1014.82 1014.87 1014.88 1015.02 1015.26 1015.43 1015.60 1015.67 1015.82 1016.09 1016.15
1023.43 1023.23 1023.16 1023.29 1022.89 1022.62 1022.03 1021.49 1021.35 1021.07 1020.75 1020.31 1019.92 1019.77 1019.39 1018.99 1018.77 1018.53 1018.37 1018.26 1018.03 1017.55 1017.22 1016.99 1016.79 1016.59 1016.34 1016.07 1015.85 1015.91 1015.78 1015.71 1015.47 1015.43 1015.31 1015.36 1015.38 1015.51 1015.63 1015.91 1016.13 1016.17 1016.22
1024.56 1024.28 1024.42 1024.40 1024.11 1023.63 1023.30 1022.98 1022.65 1022.33 1021.85 1021.26 1021.02 1020.86 1020.53 1020.30 1020.28 1019.93 1019.73 1019.43 1018.99 1018.63 1018.24 1017.87 1017.52 1017.53 1017.29 1017.01 1016.87 1016.81 1016.64 1016.36 1015.95 1015.80 1015.78 1015.65 1015.62 1015.74 1015.85 1015.96 1016.21 1016.29 1016.43
1025.86 1025.57 1025.50 1025.41 1025.10 1024.69 1024.31 1023.97 1023.46 1022.95 1022.61 1022.23 1021.83 1021.62 1021.47 1021.37 1021.23 1021.01 1020.59 1020.15 1019.80 1019.46 1019.24 1018.97 1018.69 1018.34 1018.34 1018.24 1017.91 1017.69 1017.48 1016.93 1016.61 1016.55 1016.42 1016.32 1016.43 1016.52 1016.54 1016.75 1016.85 1016.82 1016.83
1026.56 1026.50 1026.54 1026.26 1025.90 1025.55 1025.18 1024.86 1024.34 1023.88 1023.53 1023.16 1022.81 1022.59 1022.42 1022.25 1022.12 1021.92 1021.52 1021.15 1020.79 1020.43 1020.15 1019.91 1019.68 1019.47 1019.11 1019.08 1018.97 1018.70 1018.33 1018.01 1017.73 1017.30 1017.10 1017.15 1017.18 1017.31 1017.35 1017.34 1017.26 1017.34 1017.53
Wind_Speed
17 18 19 17 18 16 14 15 16 16 16 16 18 17 17 18 18 16 15 16 18 17 16 15 15 14 9 8 8 8 8 8 8 7 7 9 11 10 10 11 10 11 11
20 19 19 20 18 18 18 16 16 15 14 16 16 17 16 17 18 19 18 16 18 18 18 17 16 12 14 11 10 11 9 8 8 10 8 8 9 11 10 12 11 11 11
19 19 20 21 20 18 20 20 18 15 16 16 17 18 17 17 18 19 19 19 19 20 20 18 17 16 15 12 12 9 9 9 8 8 7 7 9 8 11 10 11 11 10
18 18 19 22 20 18 18 20 20 19 18 18 16 17 18 17 19 19 19 19 19 19 19 18 18 18 17 17 14 13 10 10 9 8 8 7 8 9 9 9 10 10 10
18 19 19 17 18 18 20 19 19 19 17 18 17 17 18 18 16 19 19 19 19 19 19 18 18 18 19 17 12 13 13 11 9 9 9 9 8 8 11 9 10 9 11
18 18 17 17 16 18 18 19 19 18 18 17 17 17 18 14 18 20 21 18 20 20 18 19 17 16 16 17 16 12 15 14 13 10 10 10 11 9 10 9 9 9 9
16 18 16 17 16 16 14 16 19 18 17 18 17 17 19 18 18 21 21 18 18 19 19 17 17 14 17 17 15 15 12 14 14 12 12 11 10 10 10 12 12 10 10
13 13 17 16 15 17 15 13 12 11 15 16 16 17 18 15 17 20 21 20 18 20 20 19 18 19 18 18 17 17 16 14 14 10 12 11 10 10 11 11 11 11 10
11 10 11 11 16 17 14 13 11 10 11 13 16 17 17 17 18 22 21 20 20 20 19 19 20 18 17 20 17 16 17 17 13 15 4 3 3 1 7 8 8 9 9
13 12 10 10 10 13 13 12 11 12 13 12 16 17 17 18 17 22 24 16 20 17 18 19 17 18 17 23 19 16 16 16 15 13 12 7 7 8 8 9 9 10 9
12 11 9 8 8 8 10 11 11 11 11 15 15 15 17 16 18 21 26 18 15 17 14 14 13 18 17 24 24 16 17 12 12 13 10 9 11 11 9 9 12 10 10
13 11 12 11 8 6 7 10 12 10 11 14 14 12 12 16 17 17 24 27 21 17 15 12 13 20 18 20 20 19 8 9 9 9 9 9 9 10 10 11 13 13 11
14 14 13 14 15 10 5 8 6 9 9 10 10 11 12 11 13 19 25 28 25 12 10 12 12 19 19 14 17 12 7 8 10 9 9 10 9 9 11 11 12 13 14
15 15 13 14 13 15 10 8 7 5 6 8 9 11 11 10 10 7 10 15 21 6 1 7 6 9 9 9 8 6 9 10 10 10 9 8 8 8 9 9 9 8 9
15 16 16 13 14 11 10 12 11 12 12 7 8 6 7 9 11 12 14 11 12 13 8 7 6 7 8 8 9 10 10 10 10 10 9 9 9 9 9 8 8 8 10
17 14 13 11 11 11 10 9 9 8 21 26 25 16 6 3 3 5 8 5 9 12 7 6 6 6 7 8 9 9 9 10 10 9 9 8 8 6 6 5 6 6 6
16 15 13 14 13 13 12 12 12 12 14 22 27 28 26 19 19 6 10 12 7 5 7 7 5 5 5 4 5 6 7 7 8 5 6 6 5 6 3 3 2 2 1
18 14 12 11 12 11 10 10 10 11 12 13 17 21 25 24 26 21 13 8 5 7 5 5 4 4 2 2 2 1 2 2 4 4 4 3 2 3 3 4 4 7 9
16 14 12 10 10 11 10 11 11 12 12 11 11 16 17 16 19 22 18 9 7 7 5 4 2 2 2 4 3 1 3 4 3 3 6 6 6 7 8 8 9 9 10
12 14 13 12 11 11 11 11 11 11 11 12 12 13 12 13 15 13 12 10 9 8 7 7 5 3 4 5 1 1 2 2 4 3 2 4 4 5 6 3 4 7 7
11 11 13 12 13 12 11 11 11 11 10 10 10 12 16 11 11 11 11 11 10 9 9 8 8 8 7 6 4 2 3 3 3 1 1 1 2 2 1 1 1 3 3
11 11 12 11 11 11 11 11 11 11 11 11 10 11 16 10 10 10 10 10 9 9 9 9 8 8 7 7 7 6 6 6 5 4 3 2 2 1 1 1 1 2 1
11 12 12 11 11 11 10 11 11 11 10 10 10 10 10 10 10 10 10 9 8 9 8 8 8 8 8 8 8 7 7 6 4 4 3 2 1 1 2 2 1 2 2
12 12 12 10 9 10 10 10 10 11 10 10 9 9 10 9 10 10 9 8 9 9 9 9 9 13 10 9 8 8 8 7 5 6 6 5 5 4 4 4 4 5 4
11 11 11 10 9 9 9 10 10 9 9 9 9 9 9 9 9 9 9 8 9 8 11 10 10 13 15 16 15 15 13 13 10 6 5 8 9 10 7 6 6 6 7
9 10 9 8 8 8 9 8 8 9 10 9 9 9 9 9 9 8 9 9 8 9 10 9 12 16 16 14 15 15 15 14 12 9 7 8 8 7 7 8 11 7 9
Wind_Direction
198 203 210 214 216 207 213 215 222 220 229 209 191 193 200 196 193 194 201 198 200 207 205 203 207 215 221 206 214 222 226 226 238 254 161 170 184 206 167 199 205 192 189
201 206 212 212 218 212 210 225 214 219 224 216 203 195 202 201 198 196 199 200 200 206 204 203 204 205 216 217 210 218 227 230 234 240 183 165 197 199 203 194 222 213 218
235 204 209 216 215 216 215 217 223 219 216 217 204 202 200 206 205 201 201 206 200 204 207 202 202 202 206 212 219 217 223 231 220 237 244 187 181 201 208 214 210 236 228
229 223 215 212 216 214 218 216 216 217 218 221 209 207 203 206 207 205 205 208 206 206 208 204 202 204 204 205 213 214 220 221 219 223 232 211 194 195 211 214 216 222 228
222 222 223 217 211 218 222 221 216 214 214 219 213 210 209 206 209 203 205 211 210 208 205 208 205 207 202 206 202 209 209 218 220 213 225 235 199 205 208 221 232 220 217
216 218 222 226 213 215 220 223 216 212 211 214 217 212 211 211 203 205 203 207 212 208 206 208 206 200 207 203 203 212 204 211 215 222 218 224 230 201 211 213 227 228 231
270 216 220 226 221 213 212 225 220 214 216 218 220 221 216 212 208 203 206 211 210 207 207 203 205 204 205 209 210 214 225 223 223 218 228 225 232 220 209 207 219 226 230
293 239 213 221 219 216 213 214 224 211 214 215 221 218 224 215 202 203 201 210 213 211 208 206 203 206 195 203 209 210 220 220 221 217 232 238 232 236 217 218 219 233 232
350 352 347 276 206 214 208 207 214 214 218 220 227 224 224 227 203 200 194 207 219 214 207 206 211 207 190 183 202 208 209 222 207 220 201 109 135 193 229 224 218 221 230
340 330 326 320 310 215 209 205 211 216 215 215 228 231 228 230 215 206 196 206 214 218 207 208 210 208 171 177 201 206 208 212 208 201 210 209 213 215 210 222 213 220 227
337 335 324 321 288 278 208 210 213 220 220 229 228 227 233 233 233 201 200 206 206 223 206 203 204 195 175 182 193 213 216 203 202 210 199 216 221 220 214 218 222 226 219
360 356 356 343 296 266 265 216 213 214 222 229 232 229 226 221 220 204 206 208 214 219 205 200 205 183 176 187 185 212 207 188 210 200 208 208 209 211 212 210 217 228 235
12 8 11 9 14 346 260 252 212 218 220 224 228 236 236 230 224 188 200 219 218 232 206 202 193 170 173 172 200 208 161 211 209 213 209 215 211 210 210 216 213 223 237
18 15 13 19 17 33 17 359 1 337 253 241 239 237 236 233 226 184 206 215 222 220 136 103 142 161 164 181 170 201 210 221 212 212 215 212 212 212 218 212 218 223 225
19 21 18 20 19 25 43 42 44 40 22 3 343 272 247 237 225 193 190 192 201 207 204 115 144 161 174 186 196 198 204 217 218 214 210 212 213 213 215 209 221 221 231
24 19 17 17 17 23 23 20 37 19 33 30 26 24 320 250 94 154 154 138 162 161 174 179 172 181 192 194 204 202 191 200 214 214 217 216 213 201 209 216 201 213 234
22 17 18 19 16 15 16 20 9 4 30 25 21 23 28 27 20 52 98 81 66 165 172 189 164 181 194 218 192 204 201 201 201 218 220 215 205 204 161 188 186 226 265
20 26 28 18 17 17 15 19 21 21 17 9 12 16 22 23 33 28 25 36 45 31 27 53 45 54 71 289 25 335 155 135 171 178 195 185 196 183 166 194 218 229 236
26 14 21 36 25 20 22 26 27 26 25 21 12 20 16 18 38 39 40 42 50 45 28 25 26 26 77 223 107 185 197 202 191 184 208 215 213 220 222 208 228 241 242
25 26 21 24 24 27 21 24 27 28 26 27 25 18 8 19 29 23 28 30 33 33 30 38 24 35 25 28 349 255 211 199 206 177 183 212 193 214 234 243 233 233 241
17 25 18 27 23 18 23 22 21 23 27 28 27 16 16 31 32 31 26 28 29 28 30 32 27 30 25 23 28 24 16 15 15 335 130 144 177 198 103 172 45 312 305
22 14 27 21 25 22 17 22 22 20 24 24 22 22 23 29 30 31 30 27 24 26 25 29 34 32 30 29 22 29 38 43 35 24 25 17 359 331 303 257 252 255 265
17 25 23 28 13 18 19 18 22 21 20 22 20 20 22 25 24 27 27 26 26 29 28 32 32 30 27 28 28 25 24 17 14 7 16 20 58 72 81 67 42 43 42
11 21 28 18 14 18 18 21 22 20 18 22 23 22 24 26 23 25 26 24 27 28 28 28 36 39 28 29 28 27 22 13 13 30 38 44 52 60 62 68 63 61 57
13 19 23 16 12 12 13 18 16 14 21 18 19 22 26 27 26 22 23 25 31 31 36 32 31 35 39 36 34 31 21 17 26 16 45 56 61 64 67 70 70 68 67
19 25 16 15 12 14 14 8 10 14 18 18 20 23 23 28 25 27 25 27 27 33 34 37 35 40 41 37 31 27 26 27 25 19 56 60 63 66 66 68 69 60 63